SEMDD ESMX-ESMQ

Flight info

Callsign SEMDD
Flight time 0h 34m
Altitude 2000
Route
Aircraft C172

Departure

Time 2026-05-06 18:04
Airport Växjö Kronoberg Airport (ESMX)

Arrival

Time 2026-05-06 18:39
Airport Kalmar Airport (ESMQ)
Time Latitude Longitude Altitude Speed Heading
2026-05-06 17:56 56.92362 14.73018 591 ft 0 kts 238°
2026-05-06 17:59 56.92329 14.72933 591 ft 13 kts 227°
2026-05-06 17:59 56.92280 14.72881 591 ft 1 kts 191°
2026-05-06 17:59 56.92185 14.72841 591 ft 25 kts 191°
2026-05-06 17:59 56.92038 14.72778 591 ft 18 kts 203°
2026-05-06 18:00 56.91976 14.72626 591 ft 13 kts 262°
2026-05-06 18:00 56.91976 14.72579 591 ft 0 kts 275°
2026-05-06 18:01 56.91976 14.72574 591 ft 4 kts 277°
2026-05-06 18:01 56.92003 14.72439 589 ft 13 kts 316°
2026-05-06 18:02 56.92040 14.72423 590 ft 0 kts 11°
2026-05-06 18:02 56.92048 14.72426 590 ft 11 kts 10°
2026-05-06 18:03 56.92290 14.72527 592 ft 59 kts 14°
2026-05-06 18:03 56.92787 14.72704 642 ft 80 kts 12°
2026-05-06 18:03 56.93339 14.72850 799 ft 79 kts 12°
2026-05-06 18:03 56.93869 14.72961 946 ft 73 kts 12°
2026-05-06 18:04 56.94286 14.73394 1044 ft 67 kts 65°
2026-05-06 18:04 56.94372 14.74152 1186 ft 59 kts 111°
2026-05-06 18:04 56.94228 14.74929 1250 ft 75 kts 108°
2026-05-06 18:04 56.94124 14.75947 1321 ft 86 kts 107°
2026-05-06 18:05 56.94145 14.77084 1430 ft 94 kts 79°
2026-05-06 18:05 56.94321 14.78291 1478 ft 100 kts 83°
2026-05-06 18:05 56.94482 14.79523 1554 ft 105 kts 82°
2026-05-06 18:05 56.94644 14.80869 1544 ft 110 kts 83°
2026-05-06 18:06 56.94796 14.82240 1547 ft 109 kts 84°
2026-05-06 18:06 56.95023 14.83584 1544 ft 111 kts 75°
2026-05-06 18:06 56.95314 14.84889 1532 ft 108 kts 72°
2026-05-06 18:06 56.95590 14.86135 1563 ft 105 kts 70°
2026-05-06 18:07 56.95903 14.87338 1552 ft 106 kts 65°
2026-05-06 18:07 56.96240 14.88485 1557 ft 101 kts 64°
2026-05-06 18:07 56.96584 14.89618 1556 ft 102 kts 65°
2026-05-06 18:07 56.96928 14.90763 1567 ft 102 kts 65°
2026-05-06 18:08 56.97226 14.91944 1571 ft 101 kts 79°
2026-05-06 18:08 56.97308 14.93226 1565 ft 102 kts 88°
2026-05-06 18:08 56.97338 14.94500 1566 ft 100 kts 90°
2026-05-06 18:08 56.97375 14.95771 1570 ft 102 kts 90°
2026-05-06 18:09 56.97396 14.97069 1561 ft 101 kts 90°
2026-05-06 18:09 56.97416 14.98342 1563 ft 99 kts 91°
2026-05-06 18:09 56.97445 14.99606 1566 ft 99 kts 90°
2026-05-06 18:09 56.97473 15.00850 1558 ft 96 kts 90°
2026-05-06 18:10 56.97347 15.02043 1569 ft 97 kts 111°
2026-05-06 18:10 56.97023 15.03142 1579 ft 99 kts 124°
2026-05-06 18:10 56.96622 15.04190 1572 ft 102 kts 124°
2026-05-06 18:10 56.96224 15.05262 1580 ft 102 kts 124°
2026-05-06 18:11 56.95817 15.06350 1573 ft 105 kts 124°
2026-05-06 18:11 56.95403 15.07457 1579 ft 105 kts 124°
2026-05-06 18:11 56.94984 15.08566 1577 ft 107 kts 124°
2026-05-06 18:11 56.94562 15.09670 1570 ft 104 kts 124°
2026-05-06 18:12 56.94151 15.10745 1571 ft 102 kts 124°
2026-05-06 18:12 56.93749 15.11797 1567 ft 101 kts 124°
2026-05-06 18:12 56.93351 15.12874 1574 ft 104 kts 124°
2026-05-06 18:12 56.92943 15.13966 1579 ft 105 kts 124°
2026-05-06 18:13 56.92526 15.15080 1570 ft 107 kts 124°
2026-05-06 18:13 56.92113 15.16168 1573 ft 104 kts 124°
2026-05-06 18:13 56.91701 15.17254 1572 ft 103 kts 124°
2026-05-06 18:13 56.91287 15.18321 1570 ft 103 kts 125°
2026-05-06 18:14 56.90861 15.19377 1579 ft 103 kts 124°
2026-05-06 18:14 56.90440 15.20452 1572 ft 104 kts 124°
2026-05-06 18:14 56.90019 15.21521 1573 ft 103 kts 125°
2026-05-06 18:14 56.89607 15.22586 1574 ft 102 kts 124°
2026-05-06 18:15 56.89201 15.23651 1565 ft 102 kts 124°
2026-05-06 18:15 56.88785 15.24703 1566 ft 103 kts 124°
2026-05-06 18:15 56.88364 15.25763 1572 ft 103 kts 124°
2026-05-06 18:15 56.87943 15.26799 1574 ft 102 kts 124°
2026-05-06 18:16 56.87526 15.27852 1574 ft 103 kts 124°
2026-05-06 18:16 56.87107 15.28920 1578 ft 103 kts 124°
2026-05-06 18:16 56.86685 15.29976 1580 ft 103 kts 124°
2026-05-06 18:16 56.86269 15.31033 1578 ft 102 kts 124°
2026-05-06 18:17 56.85861 15.32099 1573 ft 103 kts 124°
2026-05-06 18:17 56.85455 15.33165 1577 ft 101 kts 124°
2026-05-06 18:17 56.85048 15.34225 1577 ft 102 kts 124°
2026-05-06 18:17 56.84640 15.35287 1574 ft 103 kts 124°
2026-05-06 18:18 56.84223 15.36347 1574 ft 102 kts 124°
2026-05-06 18:18 56.83806 15.37392 1575 ft 102 kts 124°
2026-05-06 18:18 56.83384 15.38460 1585 ft 105 kts 124°
2026-05-06 18:18 56.82966 15.39560 1588 ft 105 kts 118°
2026-05-06 18:19 56.82596 15.40710 1586 ft 106 kts 117°
2026-05-06 18:19 56.82291 15.41904 1586 ft 105 kts 111°
2026-05-06 18:19 56.82007 15.43135 1580 ft 105 kts 111°
2026-05-06 18:19 56.81722 15.44353 1585 ft 103 kts 112°
2026-05-06 18:20 56.81450 15.45549 1626 ft 100 kts 111°
2026-05-06 18:20 56.81174 15.46706 1681 ft 99 kts 111°
2026-05-06 18:20 56.80902 15.47836 1726 ft 95 kts 111°
2026-05-06 18:20 56.80629 15.48924 1773 ft 93 kts 110°
2026-05-06 18:21 56.80378 15.50014 1820 ft 93 kts 111°
2026-05-06 18:21 56.80123 15.51108 1878 ft 93 kts 111°
2026-05-06 18:21 56.79872 15.52179 1958 ft 91 kts 111°
2026-05-06 18:21 56.79624 15.53233 2033 ft 90 kts 111°
2026-05-06 18:22 56.79373 15.54308 2048 ft 95 kts 111°
2026-05-06 18:22 56.79111 15.55420 2043 ft 96 kts 111°
2026-05-06 18:22 56.78846 15.56546 2045 ft 98 kts 111°
2026-05-06 18:22 56.78579 15.57698 2045 ft 99 kts 111°
2026-05-06 18:23 56.78311 15.58852 2048 ft 99 kts 111°
2026-05-06 18:23 56.78040 15.59998 2049 ft 101 kts 111°
2026-05-06 18:23 56.77756 15.61193 2049 ft 101 kts 111°
2026-05-06 18:23 56.77478 15.62359 2048 ft 102 kts 111°
2026-05-06 18:24 56.77218 15.63556 2050 ft 102 kts 108°
2026-05-06 18:24 56.76982 15.64777 2048 ft 103 kts 108°
2026-05-06 18:24 56.76745 15.66000 2048 ft 102 kts 108°
2026-05-06 18:24 56.76504 15.67212 2046 ft 102 kts 108°
2026-05-06 18:25 56.76292 15.68440 2047 ft 101 kts 103°
2026-05-06 18:25 56.76116 15.69695 2048 ft 103 kts 103°
2026-05-06 18:25 56.75940 15.70969 2050 ft 104 kts 103°
2026-05-06 18:25 56.75765 15.72248 2047 ft 103 kts 103°
2026-05-06 18:26 56.75590 15.73509 2043 ft 103 kts 103°
2026-05-06 18:26 56.75420 15.74759 2045 ft 103 kts 103°
2026-05-06 18:26 56.75246 15.76031 2048 ft 103 kts 103°
2026-05-06 18:26 56.75072 15.77286 2034 ft 102 kts 103°
2026-05-06 18:27 56.74897 15.78547 2029 ft 103 kts 103°
2026-05-06 18:27 56.74711 15.79833 1992 ft 105 kts 103°
2026-05-06 18:27 56.74530 15.81085 2036 ft 103 kts 103°
2026-05-06 18:27 56.74350 15.82340 2038 ft 103 kts 104°
2026-05-06 18:28 56.74173 15.83618 2023 ft 105 kts 103°
2026-05-06 18:28 56.73997 15.84897 2020 ft 103 kts 103°
2026-05-06 18:28 56.73824 15.86157 2019 ft 102 kts 103°
2026-05-06 18:28 56.73642 15.87407 2016 ft 102 kts 103°
2026-05-06 18:29 56.73460 15.88650 2017 ft 102 kts 103°
2026-05-06 18:29 56.73280 15.89905 2021 ft 103 kts 103°
2026-05-06 18:29 56.73103 15.91170 2022 ft 103 kts 103°
2026-05-06 18:29 56.72924 15.92436 2029 ft 103 kts 102°
2026-05-06 18:30 56.72725 15.93674 2016 ft 100 kts 103°
2026-05-06 18:30 56.72567 15.94890 2008 ft 98 kts 98°
2026-05-06 18:30 56.72438 15.96109 2009 ft 98 kts 98°
2026-05-06 18:30 56.72302 15.97325 2007 ft 98 kts 98°
2026-05-06 18:31 56.72169 15.98528 2025 ft 98 kts 98°
2026-05-06 18:31 56.72034 15.99748 2020 ft 99 kts 98°
2026-05-06 18:31 56.71904 16.01010 1912 ft 106 kts 98°
2026-05-06 18:31 56.71794 16.02382 1737 ft 110 kts 94°
2026-05-06 18:32 56.71727 16.03760 1566 ft 108 kts 94°
2026-05-06 18:32 56.71681 16.05066 1526 ft 98 kts 90°
2026-05-06 18:32 56.71690 16.06269 1522 ft 92 kts 88°
2026-05-06 18:32 56.71702 16.07416 1523 ft 89 kts 87°
2026-05-06 18:33 56.71708 16.08527 1523 ft 87 kts 88°
2026-05-06 18:33 56.71721 16.09620 1526 ft 85 kts 86°
2026-05-06 18:33 56.71775 16.10691 1522 ft 85 kts 82°
2026-05-06 18:33 56.71839 16.11760 1524 ft 84 kts 82°
2026-05-06 18:34 56.71914 16.12774 1521 ft 80 kts 80°
2026-05-06 18:34 56.71996 16.13765 1526 ft 78 kts 80°
2026-05-06 18:34 56.72077 16.14732 1522 ft 77 kts 80°
2026-05-06 18:34 56.72160 16.15680 1522 ft 76 kts 81°
2026-05-06 18:35 56.72246 16.16617 1524 ft 74 kts 80°
2026-05-06 18:35 56.72325 16.17536 1523 ft 73 kts 81°
2026-05-06 18:35 56.72402 16.18426 1524 ft 70 kts 80°
2026-05-06 18:35 56.72512 16.19380 1364 ft 80 kts 77°
2026-05-06 18:36 56.72608 16.20057 1243 ft 85 kts 74°
2026-05-06 18:36 56.72795 16.21102 1127 ft 88 kts 71°
2026-05-06 18:36 56.72972 16.22169 1028 ft 90 kts 82°
2026-05-06 18:36 56.72758 16.23489 971 ft 82 kts 117°
2026-05-06 18:37 56.72516 16.24065 868 ft 87 kts 127°
2026-05-06 18:37 56.72078 16.24860 706 ft 89 kts 129°
2026-05-06 18:37 56.71616 16.25589 569 ft 88 kts 137°
2026-05-06 18:37 56.71136 16.26214 463 ft 75 kts 142°
2026-05-06 18:38 56.70706 16.26673 350 ft 71 kts 142°
2026-05-06 18:38 56.70276 16.27109 261 ft 72 kts 147°
2026-05-06 18:38 56.69828 16.27540 156 ft 73 kts 149°
2026-05-06 18:38 56.69393 16.27952 59 ft 67 kts 150°
2026-05-06 18:39 56.68998 16.28320 29 ft 59 kts 147°
2026-05-06 18:39 56.68679 16.28637 25 ft 38 kts 154°
2026-05-06 18:39 56.68552 16.28715 25 ft 11 kts 192°
2026-05-06 18:40 56.68440 16.28541 26 ft 20 kts 223°
2026-05-06 18:40 56.68350 16.28362 27 ft 11 kts 232°
2026-05-06 18:40 56.68317 16.28291 27 ft 6 kts 236°
2026-05-06 18:40 56.68301 16.28247 28 ft 0 kts 238°
2026-05-06 18:41 56.68313 16.28225 27 ft 9 kts 360°
2026-05-06 18:41 56.68409 16.28224 27 ft 16 kts 358°
2026-05-06 18:41 56.68498 16.28236 27 ft 0 kts
2026-05-06 18:42 56.68517 16.28239 27 ft 5 kts 273°
2026-05-06 18:42 56.68460 16.28230 27 ft 14 kts 181°
2026-05-06 18:42 56.68333 16.28223 27 ft 22 kts 182°
2026-05-06 18:42 56.68156 16.28211 27 ft 27 kts 182°
2026-05-06 18:43 56.68017 16.28224 27 ft 17 kts 157°
2026-05-06 18:43 56.67941 16.28352 27 ft 13 kts 136°
2026-05-06 18:43 56.67878 16.28352 27 ft 7 kts 222°
2026-05-06 18:43 56.67874 16.28344 27 ft 0 kts 230°